Location: Antioch
(38.0049°N, 121.8058°W)
Time: 05:31:48
(UTC+00:00)

COSMOS 2455 - Pass Details

Date: 11 February 2026
Orbit: 899 x 909 km, 67.1° (Epoch: 5 March)

Event Time Altitude Azimuth Distance (km) Brightness Sun altitude
Exits shadow 13:56:09 - 237° (WSW) 2,656 4.8 -13.4°
Reaches altitude 10° 13:56:22 10° 238° (WSW) 2,583 4.8 -13.4°
Maximum altitude 14:01:54 38° 305° (NW) 1,358 3.3 -12.3°
Drops below altitude 10° 14:07:29 10° 13° (NNE) 2,598 5.3 -11.2°
Sets 14:10:12 0° 21° (NNE) 3,544 6.1 -10.7°
